GW1347 Weather Reports


Display with metric or nautical units.
time (UTC)temp
F
wind
direction
speed
MPH
gust
MPH
rain 1hr
in
rain 24hr
in
rain mn
in
humidity
%
barometer
mb
20260902012933 86 243 3.0 6.0 0.00 0.00 0.00 69 1017.0
20260902011950 87 224 3.0 6.0 0.00 0.00 0.00 68 1016.9
20260902010917 87 240 3.0 5.0 0.00 0.00 0.00 68 1016.8
20260902004838 88 226 2.0 4.0 0.00 0.00 0.00 67 1016.7
20260902002810 89 233 1.0 3.0 0.00 0.00 0.00 64 1016.7
20260902001815 91 198 1.0 4.0 0.00 0.00 0.00 62 1016.6
20260902000808 91 253 2.0 4.0 0.00 0.00 0.00 61 1016.7
20260901235812 92 257 2.0 6.0 0.00 0.00 0.00 59 1016.7
20260901234754 93 332 2.0 6.0 0.00 0.00 0.00 57 1016.7
20260901233814 94 151 2.0 5.0 0.00 0.00 0.00 56 1016.7
20260901232816 94 231 2.0 8.0 0.00 0.00 0.00 56 1016.8
20260901231841 93 256 3.0 8.0 0.00 0.00 0.00 56 1016.8
20260901230845 94 199 3.0 6.0 0.00 0.00 0.00 56 1016.8
20260901225812 94 223 3.0 6.0 0.00 0.00 0.00 56 1016.7
20260901224814 94 246 3.0 6.0 0.00 0.00 0.00 54 1016.6
20260901223758 94 245 4.0 8.0 0.00 0.00 0.00 55 1016.6
20260901222750 94 240 4.0 8.0 0.00 0.00 0.00 54 1016.7
20260901221804 95 233 3.0 9.0 0.00 0.00 0.00 54 1016.6
20260901220825 95 236 4.0 9.0 0.00 0.00 0.00 53 1016.7
20260901215813 95 236 4.0 8.0 0.00 0.00 0.00 53 1016.6
20260901213643 97 248 2.0 9.0 0.00 0.00 0.00 51 1016.6
20260901210317 95 200 6.0 11.0 0.00 0.00 0.00 52 1016.8
20260901205325 96 254 4.0 11.0 0.00 0.00 0.00 52 1016.9
20260901204304 95 163 6.0 11.0 0.00 0.00 0.00 52 1017.0
20260901203254 96 233 4.0 13.0 0.00 0.00 0.00 50 1016.9
20260901202224 96 219 6.0 13.0 0.00 0.00 0.00 52 1016.9
20260901201230 96 229 5.0 12.0 0.00 0.00 0.00 51 1016.9
20260901200200 96 212 4.0 11.0 0.00 0.00 0.00 50 1016.9
20260901195200 96 235 3.0 11.0 0.00 0.00 0.00 50 1017.0
20260901194207 96 297 3.0 15.0 0.00 0.00 0.00 50 1017.1
20260901192027 96 245 4.0 15.0 0.00 0.00 0.00 52 1017.5
20260901191029 95 219 5.0 10.0 0.00 0.00 0.00 52 1017.5
20260901190023 95 234 6.0 13.0 0.00 0.00 0.00 51 1017.7
20260901185023 94 224 7.0 13.0 0.00 0.00 0.00 52 1017.8
20260901183949 94 203 6.0 11.0 0.00 0.00 0.00 53 1017.9
20260901182950 94 236 6.0 12.0 0.00 0.00 0.00 54 1018.0
20260901181941 94 254 6.0 15.0 0.00 0.00 0.00 54 1018.0
20260901175825 94 182 4.0 9.0 0.00 0.00 0.00 55 1018.1
20260901174838 93 239 6.0 10.0 0.00 0.00 0.00 56 1018.2
20260901173806 93 235 4.0 12.0 0.00 0.00 0.00 59 1018.4
20260901172743 92 240 6.0 12.0 0.00 0.00 0.00 58 1018.4
20260901171757 93 284 4.0 9.0 0.00 0.00 0.00 58 1018.4
20260901170812 93 205 4.0 11.0 0.00 0.00 0.00 59 1018.4
20260901165834 92 248 5.0 11.0 0.00 0.00 0.00 59 1018.4
20260901164811 92 205 5.0 10.0 0.00 0.00 0.00 58 1018.6
20260901163819 91 219 4.0 10.0 0.00 0.00 0.00 59 1018.7
20260901162754 92 229 3.0 6.0 0.00 0.00 0.00 59 1018.8
20260901161748 91 295 3.0 9.0 0.00 0.00 0.00 60 1018.8
20260901155553 90 212 3.0 11.0 0.00 0.00 0.00 62 1019.0
20260901154601 89 238 4.0 11.0 0.00 0.00 0.00 62 1019.1
20260901153623 89 237 3.0 11.0 0.00 0.00 0.00 63 1019.1
20260901152635 88 244 3.0 12.0 0.00 0.00 0.00 65 1019.1
20260901151620 87 274 5.0 12.0 0.00 0.00 0.00 66 1018.9
20260901150624 86 236 6.0 9.0 0.00 0.00 0.00 68 1018.9
20260901145642 87 245 4.0 11.0 0.00 0.00 0.00 69 1018.9
20260901144613 85 244 6.0 11.0 0.00 0.00 0.00 71 1018.9
20260901143549 85 234 4.0 9.0 0.00 0.00 0.00 72 1018.9
20260901142613 84 143 4.0 9.0 0.00 0.00 0.00 73 1018.9
20260901141549 83 226 4.0 9.0 0.00 0.00 0.00 74 1019.0
20260901140541 83 229 3.0 8.0 0.00 0.00 0.00 74 1019.0
20260901135603 83 262 3.0 6.0 0.00 0.00 0.00 76 1019.0
20260901134615 82 245 2.0 6.0 0.00 0.00 0.00 76 1019.3
20260901133638 81 164 0.0 3.0 0.00 0.00 0.00 78 1019.5
20260901131502 79 228 1.0 4.0 0.00 0.00 0.00 80 1019.4
20260901130447 78 141 2.0 4.0 0.00 0.00 0.00 81 1019.2
20260901125452 78 211 1.0 4.0 0.00 0.00 0.00 82 1019.3
20260901124502 77 111 1.0 5.0 0.00 0.00 0.00 83 1019.3
20260901121125 75 181 1.0 4.0 0.00 0.00 0.00 86 1019.2
20260901120137 75 155 1.0 4.0 0.00 0.00 0.00 87 1019.0
20260901115136 74 207 1.0 3.0 0.00 0.00 0.00 88 1018.8
20260901114135 74 143 0.0 3.0 0.00 0.00 0.00 89 1018.8
20260901113112 73 209 0.0 0.0 0.00 0.00 0.00 90 1018.7
20260901110929 73 192 1.0 3.0 0.00 0.00 0.00 89 1018.5
20260901105919 73 207 1.0 3.0 0.00 0.00 0.00 89 1018.4
20260901104928 73 209 0.0 3.0 0.00 0.00 0.00 89 1018.3
20260901103950 74 153 0.0 3.0 0.00 0.00 0.00 88 1018.2
20260901101843 74 174 1.0 2.0 0.00 0.00 0.00 88 1018.0
20260901100900 74 204 0.0 2.0 0.00 0.00 0.00 88 1017.9
20260901095831 74 174 1.0 2.0 0.00 0.00 0.00 88 1017.9
20260901094812 75 139 1.0 3.0 0.00 0.00 0.00 88 1017.8
20260901093829 74 253 1.0 3.0 0.00 0.00 0.00 88 1017.8
20260901092844 75 164 1.0 3.0 0.00 0.00 0.00 88 1017.6
20260901091825 75 242 1.0 3.0 0.00 0.00 0.00 88 1017.7
20260901090753 75 212 0.0 2.0 0.00 0.00 0.00 88 1017.6
20260901085725 75 146 0.0 2.0 0.00 0.00 0.00 89 1017.6
20260901084743 75 214 1.0 1.0 0.00 0.00 0.00 89 1017.6
20260901083748 75 185 0.0 1.0 0.00 0.00 0.00 90 1017.5
20260901082746 74 201 0.0 0.0 0.00 0.00 0.00 91 1017.7
20260901081741 74 198 0.0 0.0 0.00 0.00 0.00 91 1017.5
20260901080741 74 198 0.0 1.0 0.00 0.00 0.00 91 1017.4
20260901075753 74 231 0.0 0.0 0.00 0.00 0.00 91 1017.4
20260901074749 75 231 0.0 3.0 0.00 0.00 0.00 89 1017.3
20260901072553 76 214 1.0 4.0 0.00 0.00 0.00 89 1017.2
20260901071554 76 232 1.0 4.0 0.00 0.00 0.00 89 1017.3
20260901070554 76 224 3.0 4.0 0.00 0.00 0.00 89 1017.3
20260901065536 76 231 2.0 5.0 0.00 0.00 0.00 88 1017.4
20260901064601 76 267 2.0 5.0 0.00 0.00 0.00 88 1017.3
20260901063533 76 232 3.0 4.0 0.00 0.00 0.00 89 1017.4
20260901062507 76 224 1.0 4.0 0.00 0.00 0.00 88 1017.5
20260901061446 76 235 0.0 0.0 0.00 0.00 0.00 88 1017.7
20260901060420 77 233 1.0 2.0 0.00 0.00 0.00 86 1017.6
20260901055348 77 237 0.0 1.0 0.00 0.00 0.00 86 1017.8
20260901054345 78 222 0.0 3.0 0.00 0.00 0.00 84 1017.7
20260901053337 78 221 1.0 3.0 0.00 0.00 0.00 84 1017.8
20260901052339 78 203 1.0 6.0 0.00 0.00 0.00 84 1017.8
20260901051346 78 184 1.0 6.0 0.00 0.00 0.00 83 1017.6
20260901045233 79 183 1.0 3.0 0.00 0.00 0.00 81 1017.6
20260901043134 80 223 0.0 1.0 0.00 0.00 0.00 81 1017.7
20260901042155 80 141 1.0 3.0 0.00 0.00 0.00 80 1017.6
20260901041147 80 155 0.0 3.0 0.00 0.00 0.00 80 1017.7
20260901040143 81 169 1.0 3.0 0.00 0.00 0.00 80 1017.5
20260901034034 81 163 0.0 2.0 0.00 0.00 0.00 79 1017.7
20260901033013 81 222 1.0 2.0 0.00 0.00 0.00 79 1017.7
20260901031952 81 198 0.0 1.0 0.00 0.00 0.00 78 1017.7
20260901030934 82 131 0.0 1.0 0.00 0.00 0.00 78 1017.7
20260901025921 82 162 0.0 1.0 0.00 0.00 0.00 78 1017.7
20260901024913 82 13 0.0 1.0 0.00 0.00 0.00 78 1017.8
20260901023839 83 13 0.0 1.0 0.00 0.00 0.00 76 1017.7
20260901022829 83 189 0.0 1.0 0.00 0.00 0.00 75 1017.8
20260901021843 83 199 0.0 1.0 0.00 0.00 0.00 75 1017.8
20260901020813 84 220 0.0 1.0 0.00 0.00 0.00 73 1017.6
20260901015740 84 239 1.0 2.0 0.00 0.00 0.00 73 1017.6
20260901014742 85 229 1.0 4.0 0.00 0.00 0.00 72 1017.5
20260901013736 85 257 1.0 5.0 0.00 0.00 0.00 72 1017.2